Regional Weather Roundup
Issued by NWS Wakefield, VA

Home | Current Version | Previous Version | Graphics & Text | Print | Product List | Glossary On
Versions: 1 2 3 4 5 6 7 8 9 10 11 12 13 14 15 16 17 18 19 20 21 22 23 24 25 26 27 28 29 30 31 32 33 34 35 36 37 38 39 40 41 42 43 44 45 46 47 48 49 50
700
ASUS41 KAKQ 281515
RWRAKQ

REGIONAL WEATHER ROUNDUP
NATIONAL WEATHER SERVICE WAKEFIELD VA
1100 AM EDT SUN AUG 28 2016

Note: "fair" indicates few or no clouds below 12,000 feet with no
significant weather and/or obstructions to visibility. * = Denotes
station may not report precipitation (e.g., rain,snow,etc.),
thunder or fog.

VAZ042-051-052>054-056-281600-
NORTHERN VIRGINIA

CITY           SKY/WX    TMP DP  RH WIND       PRES   REMARKS
WASH NATIONAL  MOSUNNY   82  69  64 E5        30.26S
DULLES         MOSUNNY   82  68  62 CALM      30.26S
FORT BELVOIR   SUNNY     82  69  64 VRB5      30.25S
QUANTICO       NOT AVBL
FREDERICKSBRG* PTSUNNY   83  72  69 E6        30.24S
STAFFORD*      MOSUNNY   82  69  64 E7        30.29S
WARRENTON      MOSUNNY   83  66  55 SE3       30.25F
CULPEPER*      MOSUNNY   82  72  71 CALM      30.26F
MANASSAS*      NOT AVBL
LEESBURG*      MOSUNNY   81  72  74 CALM      30.27F
WINCHESTER     SUNNY     82  64  54 S6        30.27R
FRONT ROYAL*   FAIR      81  68  65 CALM      30.26S
LURAY*         FAIR      81  68  65 CALM      30.27S
$$

VAZ048-049-060>072-079>083-281600-
CENTRAL AND SOUTH CENTRAL VIRGINIA

CITY           SKY/WX    TMP DP  RH WIND       PRES   REMARKS
RICHMOND       MOSUNNY   82  70  66 N9        30.23S
CHESTERFIELD*  FAIR      82  61  47 N6        30.25S
PETERSBURG*    MOSUNNY   85  70  62 NE6       30.23S
HANOVER        MOSUNNY   81  69  67 E6        30.25F
TAPPAHANNOCK*  MOSUNNY   84  69  60 N6        30.24S
QUINTON*       FAIR      82  72  72 N6        30.22F
CHARLOTTSVILLE SUNNY     82  70  66 CALM      30.26F
GORDONSVILLE*  FAIR      81  70  69 CALM      30.26S
ORANGE*          N/A     81  70  69 CALM      30.28S
LOUISA*        MOSUNNY   84  73  70 CALM      30.25F
BUMPASS*       FAIR      81  72  73 E6        30.25S
FARMVILLE*     SUNNY     81  70  69 N5        30.24S
CREWE*         FAIR      82  71  68 NE7       30.24S
FORT PICKETT*  NOT AVBL
CHASE CITY*    FAIR      81  70  70 N3        30.24S
CLARKSVILLE*   PTSUNNY   81  72  74 NE5       30.23S
SOUTH HILL*    PTSUNNY   80  71  74 N5        30.28F
LAWRENCEVILLE* PTSUNNY   80  71  74 E6        30.22F
EMPORIA*       PTSUNNY   79  72  78 NE8       30.23S
$$

VAZ088>098-281600-
SOUTHEAST VIRGINIA

CITY           SKY/WX    TMP DP  RH WIND       PRES   REMARKS
NORFOLK        MOSUNNY   82  73  74 NE10      30.20R
VIRGINIA BEACH CLOUDY    87  73  62 NE9G22    30.19R
NORFOLK NAVAL  PTSUNNY   84  72  67 E12       30.22R
WEST POINT*    MOSUNNY   82  69  63 N8        30.24S
SALUDA*        FAIR      81  71  72 NE6       30.22S
NEWPORT NEWS   SUNNY     84  71  65 NE14      30.21R
LANGLEY AFB    MOSUNNY   84  73  70 NE12      30.21R
FORT EUSTIS    SUNNY     87  66  49 NE8G17    30.19R
WILLIAMSBURG*  SUNNY     90  72  55 NE5       30.22S HX  96
HR EXEC AP*    FAIR      84  72  65 NE8       30.22R
FRANKLIN*      CLOUDY    82  72  70 NE9       30.21S
US460-WAKEFLD  MOSUNNY   82  71  69 VRB6      30.21S
$$

VAZ020-022-025-037-045-281600-
WEST CENTRAL AND SOUTHWEST VIRGINIA

CITY           SKY/WX    TMP DP  RH WIND       PRES   REMARKS
STAUNTON*      PTSUNNY   80  64  57 CALM      30.31R
WAYNESBORO*    FAIR      79  65  62 CALM      30.31R
HOT SPRINGS VA MOSUNNY   73  65  74 E6        30.40S
LYNCHBURG      SUNNY     81  66  60 VRB5      30.28F
DANVILLE       SUNNY     81  67  62 NE8       30.25S
SOUTH BOSTON*  FAIR      78  72  83 E5        30.24F
MARTINSVILLE   SUNNY     81  68  66 N5        30.28F
ROANOKE        MOSUNNY   82  65  56 CALM      30.30S
BLACKSBURG     SUNNY     78  67  69 E6        30.36S
DUBLIN*        PTSUNNY   79  70  73 NW3       30.34S
MARION*        PTSUNNY   79  69  72 E6        30.37S
HILLSVILLE*    SUNNY     75  68  79 CALM      30.35S
RICHLANDS*     PTSUNNY   79  70  75 SE3       30.33S
WISE*          CLOUDY    81  61  50 S3        30.34R
ABINGDON*      PTSUNNY   82  70  67 SE5       30.30S
$$

MDZ021>025-VAZ099-100-281600-
SOUTHERN MARYLAND AND THE DELMARVA PENINSULA

CITY           SKY/WX    TMP DP  RH WIND       PRES   REMARKS
PATUXENT RIVER PTSUNNY   75  69  81 E5        30.24S
BAY BRIDGE APT MOSUNNY   81  70  69 NE7       30.26S
LEONARDTOWN    PTSUNNY   79  68  69 NE3       30.26S
DOVER          SUNNY     80  72  75 E5        30.25R
GEORGETOWN     NOT AVBL
EASTON         NOT AVBL
CAMBRIDGE      SUNNY     79  68  69 E8        30.24S
SALISBURY      SUNNY     83  67  58 E12       30.23S
OCEAN CITY     SUNNY     83  69  62 NE12      30.24R
WALLOPS ISLAND SUNNY     83  60  45 NE16      30.23S
ACCOMACK*      SUNNY     83  68  61 E7        30.22R
$$

NCZ012>017-030>032-281600-
NORTH CENTRAL AND EASTERN NORTH CAROLINA

CITY           SKY/WX    TMP DP  RH WIND       PRES   REMARKS
ROANOKE RAPIDS PTSUNNY   82  72  69 NE9       30.21R
RALEIGH        PTSUNNY   80  71  74 N8G17     30.22S
ELIZABETH CITY PTSUNNY   85  75  72 NE16      30.17S
AHOSKIE*       MOSUNNY   81  73  75 N12       30.19S
EDENTON*       PTSUNNY   86  74  67 NE12      30.18R
CURRITUCK*       N/A     84  75  75 NE13G18   30.19R
KILL DEVIL HLS MOSUNNY   86  81  85 NE5       30.15R HX 101
MANTEO         PTSUNNY   83  78  85 NE12      30.16S
CAPE HATTERAS  HVY RAIN  81  77  88 E7        30.14R FOG
TARBORO*       PTSUNNY   82  75  78 N6        30.19S
GOLDSBORO      CLOUDY    80  77  91 N9        30.17R
WASHINGTON     MOSUNNY   81  75  82 N8        30.17S
GREENVILLE     CLOUDY    81  75  83 N10       30.19S
NEW BERN       CLOUDY    81  75  82 N8        30.16S
WILMINGTON     CLOUDY    85  75  72 N9        30.14R
$$

VAZ048-281600-
ELSEWHERE

CITY           SKY/WX    TMP DP  RH WIND       PRES   REMARKS
HARRISBURG PA  MOSUNNY   81  70  69 SE6       30.26S
BALTIMORE      MOSUNNY   80  68  66 VRB5      30.26R
ANNAPOLIS      MOSUNNY   80  70  71 VRB3      30.25S
ANDREWS AFB    MOSUNNY   82  68  62 E8        30.25S
PHILADELPHIA   MOSUNNY   83  66  56 VRB3      30.26F
HENDERSON NC   SUNNY     77  69  77 NE8       30.24R
GREENSBORO     MOSUNNY   81  67  62 NE9       30.24S
ROCKY MOUNT    PTSUNNY   82  73  74 NE8       30.19S
$$

VAZ100-281600-
MARINE

STATION/POSITION TIME  TEMP    WIND        PRES    WAVE   SWELL
                       AIR SEA DIR/SP/G            HT/PER HT/PER
                 (UTC) (F)     (DEG/KT/KT) (MB)    (FT/S) (FT/S)
BRANDYWINE LGT   1400   76      60/  7/  7   N/A
CAPE MAY NJ      1400   80 74  100/  6/ 12 1023.8R
LEWES DE         1400   76 76   40/  6/  7 1024.2R
OCEAN-CITY-INLET 1400   80 75   40/  4/  8 1024.2R
WACHAPREAGUE VA  1400   80 81   40/ 12/ 15 1023.0R
THOMAS POINT MD  1500   78 83   90/  2/  5 1025.9R
GOOSES REEF MD   1500   79 83   60/  6/  8 1024.8S   1
COVE POINT MD    1400   77      70/  4/  5 1024.7S
SOLOMONS ISLAND  1400   78 84   60/  7/ 10   N/A
PINEY POINT MD   1400           80/  6/  7   N/A
POTOMAC MD       1500   79 83   60/  8/ 12 1022.9S   1
CAMBRIDGE MD     1400   78 83   80/  6/  8 1023.5R
LEWISETTA VA     1400   79 83   60/  6/  9 1023.4R
RAPPAHANNOCK LGT 1400           30/ 11/ 12 1023.5F
STINGRAY PT      1500   80 83  340/ 10/ 14 1023.8R   2/ 3
YORK RVR RNG VA  1400   80      50/ 15/ 18 1022.3S
YORKTOWN VA      1400   81 83   60/ 12/ 15 1022.4S
JAMESTOWN VA     1500   82 86   70/  8/ 12   N/A     0
DOMINION TERM VA 1400   81      80/ 10/ 15 1022.6R
KIPTOPEKE VA     1400      81   70/ 11/ 16   N/A
CHES BAY BRIDGE  1400   78 76   40/ 16/ 18 1022.1R
CAPE HENRY VA    1400   78      40/ 14/ 16   N/A
WILLOUBY STN VA  1400   79      50/ 13/ 14   N/A
CAPE HENRY BUOY  1412      80                N/A     4/ 6
1ST LANDING BUOY 1500   79 77   70/ 14/ 16 1022.3R   2/ 4
CAPE CHARLES BUO 1426      79                N/A     4/ 6
OFFSHORE WE BUOY 1421      80                N/A     4/ 6
64NM E OF VA BCH 1450   81 81   50/ 16/ 17 1020.9R   4/ 6   2/ 9
DUCK PIER NC     1400   80 77   30/ 15/ 16 1020.5R
44100 DUCK FRF   1405      80                N/A     4/ 6
44056 DUCK FRF   1411      79                N/A     4/ 6
OREGON INLET NC  1400   81 78   30/  7/ 10 1020.5R
HATTERAS NC      1400   82 83   20/  4/  5 1020.0R
DIAMOND SHLS NC  1450   84 85   90/  8/ 10 1020.4R   3/ 8   2/ 8
CAPE LOOKOUT NC  1500   83      40/  8/  9 1020.0R
$$




USA.gov is the U.S. government's official web portal to all federal, state and local government web resources and services.